Weather History for Saipan, MP

Change the Weather History Date:

Monday, September 23, 2013

  Actual Average Record
Temperature  
Mean Temperature 82 °F -  
Max Temperature 86 °F 84 °F 89 °F (1997)
Min Temperature 78 °F 76 °F 73 °F (2003)
Cooling Degree Days 17    
Growing Degree Days 32 (Base 50)    
Moisture  
Dew Point 76 °F    
Average Humidity 86    
Maximum Humidity 94    
Minimum Humidity 72    
Precipitation  
Precipitation 0.18 in - - ()
Sea Level Pressure  
Sea Level Pressure 29.71 in    
Wind  
Wind Speed 13 mph (SSW)    
Max Wind Speed 15 mph    
Max Gust Speed 25 mph    
Visibility 10 miles    
Events Rain    
Averages and records for this station are not official NWS values.
T = Trace of Precipitation, MM = Missing Value Source: NWS Daily Summary

Daily Weather History Graph

Daily Weather History Graph

Search for Another Location

Airport:

Trip Planner

Search our weather history database for the weather conditions in past years. The results will help you decide how hot, cold, wet, or windy it might be!

Date:

Astronomy

Sep. 23, 2013 Rise Set
Actual Time 6:06 AM ChST 6:12 PM ChST
Civil Twilight 5:44 AM ChST 6:34 PM ChST
Nautical Twilight 5:19 AM ChST 6:58 PM ChST
Astronomical Twilight 4:54 AM ChST 7:23 PM ChST
Moon 8:57 PM ChST 9:08 AM ChST
Length of Visible Light 12h 49m
Length of Day
12h 06m
Waning Gibbous, 86% of the Moon is Illuminated
Sep 23
Waning Gibbous
Sep 27
Last Quarter
Oct 5
New
Oct 12
First Quarter
Oct 19
Full

Hourly Weather History & Observations

Time (ChST) Temp. Heat Index Dew Point Humidity Pressure Visibility Wind Dir Wind Speed Gust Speed Precip Events Conditions
12:01 AM 78.8 °F - 77.0 °F 94% 29.68 in 9.0 mi South 15.0 mph 21.9 mph 0.00 in Rain Light Rain
12:11 AM 78.8 °F - 75.2 °F 89% 29.68 in 10.0 mi South 12.7 mph 19.6 mph 0.00 in Rain Light Rain
12:54 AM 79.0 °F - 75.9 °F 90% 29.73 in 10.0 mi South 13.8 mph 23.0 mph 0.00 in Rain Light Rain
1:01 AM 78.8 °F - 75.2 °F 89% 29.67 in 10.0 mi South 15.0 mph 25.3 mph 0.00 in Rain Light Rain
1:41 AM 80.6 °F 87.1 °F 77.0 °F 89% 29.65 in 10.0 mi South 12.7 mph 18.4 mph 0.00 in Rain Light Rain
1:54 AM 80.1 °F 85.4 °F 75.9 °F 87% 29.71 in 10.0 mi South 12.7 mph 23.0 mph 0.00 in Rain Light Rain
2:23 AM 80.6 °F 86.2 °F 75.2 °F 84% 29.64 in 10.0 mi South 13.8 mph 21.9 mph 0.00 in Rain Light Rain
2:54 AM 81.0 °F 87.3 °F 75.9 °F 85% 29.69 in 10.0 mi South 10.4 mph - 0.00 in Rain Light Rain
3:04 AM 78.8 °F - 75.2 °F 89% 29.62 in 10.0 mi SW 9.2 mph 23.0 mph 0.00 in Rain Light Rain
3:54 AM 80.1 °F 85.8 °F 77.0 °F 90% 29.68 in 10.0 mi South 13.8 mph 21.9 mph 0.02 in Rain Light Rain
4:09 AM 80.6 °F 87.1 °F 77.0 °F 89% 29.62 in 10.0 mi South 11.5 mph 19.6 mph 0.00 in Rain Light Rain
4:54 AM 80.1 °F 85.8 °F 77.0 °F 90% 29.69 in 10.0 mi South 8.1 mph - 0.00 in Rain Light Rain
5:54 AM 78.1 °F - 75.9 °F 93% 29.71 in 7.0 mi South 11.5 mph 20.7 mph 0.10 in Rain Light Rain
5:57 AM 78.8 °F - 75.2 °F 89% 29.65 in 4.0 mi SSW 12.7 mph 20.7 mph 0.00 in Rain Light Rain
6:44 AM 78.8 °F - 75.2 °F 89% 29.66 in 10.0 mi SSW 12.7 mph - 0.00 in Rain Light Rain
6:54 AM 78.1 °F - 75.9 °F 93% 29.73 in 10.0 mi SSW 10.4 mph - 0.00 in Rain Light Rain
7:54 AM 80.1 °F 85.8 °F 77.0 °F 90% 29.75 in 10.0 mi SSW 8.1 mph - 0.00 in   Partly Cloudy
8:54 AM 82.0 °F 90.2 °F 77.0 °F 85% 29.76 in 10.0 mi SSW 12.7 mph - N/A   Scattered Clouds
9:54 AM 82.9 °F 91.8 °F 77.0 °F 82% 29.76 in 10.0 mi SSW 13.8 mph 19.6 mph N/A   Mostly Cloudy
10:54 AM 84.0 °F 94.8 °F 78.1 °F 82% 29.75 in 10.0 mi South 15.0 mph - 0.00 in   Scattered Clouds
11:54 AM 86.0 °F 96.0 °F 75.9 °F 72% 29.72 in 10.0 mi South 13.8 mph - N/A   Scattered Clouds
12:54 PM 86.0 °F 96.9 °F 77.0 °F 74% 29.70 in 10.0 mi South 15.0 mph 20.7 mph N/A   Scattered Clouds
1:54 PM 86.0 °F 98.3 °F 78.1 °F 77% 29.70 in 10.0 mi South 13.8 mph - N/A   Mostly Cloudy
2:54 PM 82.9 °F 92.8 °F 78.1 °F 85% 29.70 in 8.0 mi SSW 9.2 mph - 0.00 in Rain Light Rain
3:54 PM 84.9 °F 94.1 °F 75.9 °F 74% 29.70 in 10.0 mi SSW 10.4 mph - 0.00 in   Mostly Cloudy
4:54 PM 82.9 °F 90.2 °F 75.0 °F 77% 29.70 in 10.0 mi SSW 11.5 mph - N/A   Scattered Clouds
5:54 PM 82.0 °F 89.4 °F 75.9 °F 82% 29.72 in 10.0 mi South 12.7 mph 19.6 mph N/A   Scattered Clouds
6:54 PM 81.0 °F 87.3 °F 75.9 °F 85% 29.74 in 10.0 mi South 11.5 mph - 0.00 in   Partly Cloudy
7:54 PM 79.0 °F - 75.9 °F 90% 29.77 in 8.0 mi SSW 9.2 mph 19.6 mph 0.06 in Rain Rain
8:54 PM 80.1 °F 86.4 °F 78.1 °F 94% 29.78 in 10.0 mi South 11.5 mph - 0.00 in   Overcast
9:07 PM 80.6 °F 87.1 °F 77.0 °F 89% 29.72 in 10.0 mi South 11.5 mph - N/A   Overcast
9:54 PM 81.0 °F 87.9 °F 77.0 °F 88% 29.79 in 10.0 mi SSW 8.1 mph - N/A   Partly Cloudy
10:54 PM 81.0 °F 87.9 °F 77.0 °F 88% 29.78 in 10.0 mi South 10.4 mph - N/A   Clear
11:54 PM 82.0 °F 90.2 °F 77.0 °F 85% 29.78 in 10.0 mi South 12.7 mph - N/A   Overcast